This is the latest recevied weather packets stored in our database for station/object KC5DAQ-27. If no packets are shown the sender has not sent any weather packets the latest 10 day(s).
| Time | Temp. | Humidity | Pressure | Rain* | Wind** | Luminosity | Snow |
|---|---|---|---|---|---|---|---|
| 1777043855 | 24.44° C | 92% | 1000.9 hPa | 0 mm | - | 317 W/m² | - |
| 1777043796 | 24.44° C | 92% | 1000.9 hPa | 0 mm | - | 320 W/m² | - |
| 1777043735 | 24.44° C | 92% | 1000.9 hPa | 0 mm | - | 339 W/m² | - |
| 1777043676 | 23.89° C | 92% | 1001 hPa | 0 mm | - | 311 W/m² | - |
| 1777043616 | 23.89° C | 92% | 1001 hPa | 0 mm | - | 280 W/m² | - |
| 1777043555 | 23.89° C | 92% | 1001 hPa | 0 mm | - | 259 W/m² | - |
| 1777043496 | 23.89° C | 92% | 1001.1 hPa | 0 mm | - | 253 W/m² | - |
| 1777043436 | 23.89° C | 92% | 1001.1 hPa | 0 mm | - | 225 W/m² | - |
| 1777043375 | 23.89° C | 92% | 1001.1 hPa | 0 mm | - | 179 W/m² | - |
| 1777043317 | 23.89° C | 92% | 1001 hPa | 0 mm | - | 123 W/m² | - |
| 1777043255 | 23.89° C | 92% | 1001.1 hPa | 0 mm | - | 139 W/m² | - |
| 1777043195 | 23.89° C | 93% | 1001.1 hPa | 0 mm | - | 164 W/m² | - |
| 1777043135 | 23.89° C | 93% | 1001.1 hPa | 0 mm | - | 192 W/m² | - |
| 1777043077 | 23.89° C | 93% | 1001 hPa | 0 mm | - | 199 W/m² | - |
| 1777043015 | 23.89° C | 93% | 1001 hPa | 0 mm | - | 202 W/m² | - |
| 1777042956 | 23.89° C | 93% | 1001 hPa | 0 mm | - | 183 W/m² | - |
| 1777042896 | 23.89° C | 93% | 1001 hPa | 0 mm | - | 183 W/m² | - |
| 1777042836 | 23.89° C | 93% | 1001 hPa | 0 mm | - | 192 W/m² | - |
| 1777042775 | 23.89° C | 93% | 1001 hPa | 0 mm | - | 193 W/m² | - |
| 1777042716 | 23.89° C | 93% | 1000.8 hPa | 0 mm | - | 220 W/m² | - |
| 1777042656 | 23.89° C | 93% | 1000.8 hPa | 0 mm | - | 239 W/m² | - |
| 1777042595 | 23.89° C | 93% | 1000.7 hPa | 0 mm | - | 244 W/m² | - |
| 1777042535 | 23.89° C | 93% | 1000.8 hPa | 0 mm | - | 244 W/m² | - |
| 1777042476 | 23.89° C | 93% | 1000.8 hPa | 0 mm | - | 244 W/m² | - |
| 1777042415 | 23.89° C | 93% | 1000.8 hPa | 0 mm | - | 234 W/m² | - |
* Rain latest hour (hover to see other rain measurements)
** Current wind speed in m/s (hover to see current wind gust speed)